This demonstration page uses our WeatherBlox Daily Observations layout. Learn more.

41.86663, -103.66717

Hourly Observations for December 20, 2019

Temp ( °F °C ) Dew Point ( °F °C ) Humidity (%) Winds ( mph kmh ) Pressure ( in mb ) Visibility ( mi km ) Precip ( " mm )
12:53 am 00:53 Clear 24 -4.4 16 -8.9 71 71 NW 9 15 30.2 1023 10 16.0934 0 0
1:53 am 01:53 Clear 24 -4.4 16 -8.9 71 71 WNW 10 17 30.21 1023 10 16.0934 0 0
2:53 am 02:53 Clear 24 -4.4 16 -8.9 71 71 NW 8 13 30.21 1023 10 16.0934 0 0
3:53 am 03:53 Clear 24 -4.4 16 -8.9 71 71 NNW 3 6 30.22 1024 10 16.0934 0 0
4:53 am 04:53 Clear 22 -5.6 15 -9.4 75 75 NW 5 7 30.24 1024 10 16.0934 0 0
5:53 am 05:53 Clear 23 -5 15 -9.4 72 72 N 7 11 30.24 1024 10 16.0934 0 0
6:53 am 06:53 Clear 23 -5 16 -8.9 74 74 NNW 8 13 30.26 1025 10 16.0934 0 0
7:53 am 07:53 Sunny 25 -3.9 17 -8.3 72 72 NNW 7 11 30.29 1026 10 16.0934 0 0
8:53 am 08:53 Sunny 32 0 21 -6.1 64 64 NW 6 9 30.28 1026 10 16.0934 0 0
9:53 am 09:53 Sunny 39 3.9 24 -4.4 55 55 WNW 5 7 30.29 1026 10 16.0934 0 0
10:53 am 10:53 Sunny 44 6.7 25 -3.9 47 47 WNW 9 15 30.24 1024 10 16.0934 0 0
11:53 am 11:53 Sunny 48 8.9 26 -3.3 42 42 WNW 16 26 30.21 1023 10 16.0934 0 0
12:53 pm 12:53 Sunny 50 10 25 -3.9 38 38 W 20 31 30.18 1022 10 16.0934 0 0
1:53 pm 13:53 Sunny 50 10 26 -3.3 39 39 W 18 30 30.18 1022 10 16.0934 0 0
2:53 pm 14:53 Sunny 48 8.9 26 -3.3 42 42 WNW 16 26 30.19 1023 10 16.0934 0 0
3:53 pm 15:53 Sunny 45 7.2 26 -3.3 48 48 W 12 19 30.22 1023 10 16.0934 0 0
4:53 pm 16:53 Clear 42 5.6 27 -2.8 55 55 W 14 22 30.24 1024 10 16.0934 0 0
5:53 pm 17:53 Clear 41 5 27 -2.8 57 57 WNW 12 19 30.24 1024 10 16.0934 0 0
6:53 pm 18:53 Clear 41 5 27 -2.8 57 57 WNW 12 19 30.25 1024 10 16.0934 0 0
7:53 pm 19:53 Clear 41 5 26 -3.3 55 55 WNW 10 17 30.26 1025 10 16.0934 0 0
8:53 pm 20:53 Clear 39 3.9 26 -3.3 60 60 W 8 13 30.24 1024 10 16.0934 0 0
9:53 pm 21:53 Clear 30 -1.1 24 -4.4 79 79 Calm 30.26 1025 10 16.0934 0 0
10:53 pm 22:53 Clear 33 0.6 25 -3.9 72 72 N 6 9 30.24 1024 10 16.0934 0 0
11:53 pm 23:53 Clear 31 -0.6 25 -3.9 79 79 NNW 6 9 30.22 1023 10 16.0934 0 0

Powered by AerisWeather